Wind_Speed
15 16 16 18 19 18 17 15 15 16 19 19 20 23 23 25 27 24 23 11 3 5 5 6 10 12 14 14 19 5 11 14 21 20 20 23 28 29 32 34 34 32 31 27 26 18 21
14 15 16 18 20 21 19 16 13 13 15 17 19 20 22 24 26 28 23 15 6 5 5 6 8 9 8 12 13 13 4 14 18 17 18 21 25 25 28 31 31 31 30 29 25 25 21
14 15 17 20 23 24 21 16 13 10 11 13 16 16 19 22 25 26 30 24 11 7 4 7 7 8 9 10 11 8 6 13 18 17 15 18 23 25 24 26 30 23 30 25 27 23 24
14 15 17 19 22 25 24 19 14 10 9 9 12 13 15 19 25 25 29 29 14 6 4 5 9 9 13 12 11 8 6 12 15 13 15 18 23 24 18 24 28 22 26 25 27 25 24
15 17 18 19 22 24 23 21 17 11 9 9 9 10 14 16 20 27 27 31 21 11 5 1 12 10 9 12 14 9 7 12 12 14 16 19 23 21 21 24 26 26 21 29 25 27 25
15 17 18 19 21 23 23 21 18 13 10 10 10 10 10 13 16 18 26 34 21 17 15 7 14 9 8 9 13 11 8 13 13 14 19 21 24 18 21 27 29 28 19 26 26 26 27
13 15 17 19 20 22 24 21 18 15 13 12 11 10 10 11 14 15 17 22 28 20 17 12 9 14 10 7 5 9 8 13 14 17 22 23 26 19 22 24 18 24 23 17 24 23 25
12 13 16 18 20 22 24 23 19 16 15 14 14 11 10 10 11 12 15 15 19 19 21 16 12 10 8 7 7 4 8 13 16 20 21 19 23 13 18 21 13 19 22 16 18 24 18
11 12 14 16 19 21 23 24 21 17 15 16 17 15 10 10 11 11 10 11 9 13 21 24 19 14 10 3 6 7 11 11 17 20 17 17 20 13 18 19 16 17 19 17 10 15 21
10 12 14 16 17 20 22 24 24 19 17 17 16 15 11 6 8 8 7 7 5 4 7 15 9 10 12 15 11 9 7 13 17 17 15 11 19 16 19 17 15 16 16 17 13 6 5
10 11 12 15 17 19 21 23 24 23 19 19 16 14 12 7 6 6 4 5 4 3 4 4 9 7 3 4 8 7 13 12 16 16 12 8 16 16 16 17 13 9 11 14 13 12 6
8 10 13 14 15 16 18 22 23 24 22 19 17 15 13 12 8 5 5 5 5 3 3 2 4 5 9 5 7 14 8 13 18 13 7 10 14 13 14 13 12 9 9 11 10 9 3
8 10 13 15 16 17 17 19 22 23 23 23 21 17 14 11 12 8 7 5 4 5 3 4 2 8 6 10 10 5 6 10 13 10 5 15 16 15 11 14 13 12 15 5 2 1 4
8 10 11 13 16 18 19 20 21 22 22 22 22 20 18 11 11 10 7 6 6 9 9 9 6 6 8 8 4 4 5 11 11 9 8 9 8 17 15 15 10 14 13 4 6 4 3
5 7 9 12 13 15 17 19 21 22 22 22 20 20 20 17 11 9 7 7 3 4 6 5 5 2 6 7 2 3 6 9 7 9 6 10 6 19 14 17 13 16 12 8 5 2 1
3 6 8 10 12 14 16 17 18 20 24 21 20 21 20 17 14 9 9 7 6 6 4 1 1 1 4 5 3 4 5 10 9 8 8 5 4 16 15 17 17 11 15 7 6 4 4
3 3 7 9 10 11 14 16 17 18 20 23 20 19 21 18 14 12 9 7 6 4 5 3 1 3 4 5 5 4 2 3 10 7 8 5 4 10 15 17 17 18 15 11 7 5 4
7 5 5 7 10 11 11 13 14 16 17 19 19 18 16 19 19 12 9 7 6 6 5 3 1 2 2 5 4 5 5 6 5 7 7 5 4 3 18 12 18 20 19 17 8 7 7
11 8 7 7 9 11 12 12 13 13 14 16 17 18 14 19 15 16 13 10 7 8 8 6 3 1 2 4 3 7 6 6 7 9 8 7 4 3 2 11 17 20 24 22 20 12 11
14 13 10 9 9 10 11 12 12 13 13 13 14 14 16 18 16 14 14 13 12 9 6 8 7 4 3 4 5 4 6 5 7 9 11 8 10 9 5 1 4 10 19 22 23 15 20
18 16 14 13 13 12 12 12 13 13 13 12 11 10 12 14 15 15 14 13 13 12 11 8 6 7 7 5 6 7 6 6 7 8 10 11 10 11 14 16 15 15 14 14 23 28 21
22 20 19 18 16 15 14 14 15 13 14 13 11 10 10 11 11 14 15 15 14 15 14 11 8 7 7 8 8 10 7 6 8 8 10 12 11 11 13 14 17 21 21 22 24 26 29
27 25 23 22 20 20 19 17 17 16 15 14 14 12 13 11 12 14 12 15 15 16 12 12 12 12 12 11 10 11 11 11 12 11 10 12 10 8 7 12 13 17 20 23 26 29 27
31 29 28 27 26 24 22 21 21 20 20 19 17 16 16 17 13 13 12 11 14 13 15 16 15 14 14 14 15 15 16 16 17 17 17 15 12 9 7 8 2 10 11 12 13 14 13
36 34 32 31 29 28 28 26 24 24 22 23 22 20 20 21 19 16 15 14 14 14 16 16 18 18 18 17 17 13 14 16 17 23 24 22 19 9 6 8 15 19 17 12 9 9 8
40 38 37 35 34 32 31 31 30 28 27 22 25 24 23 23 24 19 19 19 17 15 17 17 19 20 19 18 17 9 6 10 7 6 7 18 23 19 9 5 6 5 5 5 6 6 10
44 43 42 40 38 36 35 33 34 33 31 26 27 27 27 26 25 23 22 22 23 21 21 21 21 23 21 20 20 19 17 16 9 10 10 14 17 24 25 13 10 16 17 14 8 8 10
49 46 45 43 42 39 39 35 36 36 36 33 29 30 31 32 28 27 28 28 27 23 23 23 22 25 20 17 15 15 12 13 14 19 15 14 10 11 13 10 11 12 13 11 11 9 10
52 50 50 47 46 43 41 39 38 37 38 37 33 32 33 34 35 33 32 32 30 28 27 24 25 27 18 17 15 11 14 13 14 10 16 16 18 9 13 6 9 7 8 8 13 20 22
Wind_Direction
32 27 20 15 10 1 352 344 343 356 2 3 2 1 3 9 12 6 8 28 299 288 260 227 225 223 221 219 207 199 215 212 205 201 208 203 198 196 202 203 204 205 209 212 210 206 216
33 26 22 17 12 4 357 346 338 349 0 11 16 15 11 16 18 13 10 351 322 281 245 230 212 205 197 181 190 220 245 205 196 203 204 202 195 192 201 206 201 205 209 212 213 215 220
32 22 19 17 12 6 1 348 341 338 356 9 22 28 26 27 25 19 12 8 358 329 276 213 203 187 165 183 191 200 224 198 192 203 198 196 192 188 197 202 198 202 207 210 210 210 217
29 20 15 15 13 9 6 357 345 336 337 357 17 19 30 33 32 29 24 19 11 20 2 267 170 165 171 174 172 173 191 193 198 202 188 192 186 184 186 193 194 198 203 204 206 206 212
23 19 14 12 14 14 10 5 354 342 323 336 351 4 12 29 33 35 36 24 19 21 10 167 146 155 162 170 174 175 176 178 181 187 181 187 182 179 184 187 185 192 201 201 204 207 211
26 21 17 14 13 16 13 10 2 351 338 316 324 337 356 14 24 28 35 30 23 43 49 71 142 134 137 161 190 159 151 170 173 180 177 182 182 182 184 184 182 189 191 197 205 210 216
31 27 20 16 15 15 14 12 10 360 348 336 315 320 327 349 8 18 20 28 33 54 44 63 82 105 116 134 189 109 154 167 175 179 178 179 182 190 187 190 204 205 195 200 206 215 222
25 28 27 18 17 15 17 15 16 11 357 357 345 317 309 308 336 359 11 19 40 39 55 65 93 104 95 113 133 150 167 166 172 171 174 177 188 184 182 183 182 199 201 199 209 215 225
15 22 27 26 19 19 20 18 16 17 9 6 357 342 311 296 309 335 356 14 44 51 49 60 66 72 55 117 107 135 151 165 165 168 168 175 185 181 177 178 180 184 187 189 191 216 232
11 14 20 23 23 18 21 23 19 18 17 15 8 354 347 321 312 321 357 9 25 34 66 46 59 66 78 80 98 126 139 154 156 166 159 175 182 176 171 174 182 185 191 202 207 201 212
10 11 15 22 21 20 17 22 25 24 22 19 18 10 4 4 345 328 8 38 50 75 53 64 53 46 86 49 128 142 140 156 153 167 169 171 176 171 176 186 177 168 175 199 209 216 220
25 15 12 13 19 23 20 19 22 25 25 24 23 21 11 15 23 18 15 50 51 60 47 79 47 67 94 100 136 137 142 161 163 169 164 193 173 163 183 185 186 175 167 168 183 194 238
32 25 15 10 12 16 18 20 20 22 26 26 23 29 16 19 24 26 42 50 47 51 66 55 84 120 110 121 133 148 161 171 177 184 178 180 183 194 186 178 179 172 157 112 77 180 213
30 29 22 13 9 14 17 14 17 18 21 22 26 25 25 17 18 20 27 35 61 80 94 100 102 128 147 148 134 131 156 159 186 177 187 183 183 190 194 188 187 183 186 176 176 182 223
25 21 25 20 15 7 13 16 14 15 15 21 23 26 26 25 24 29 25 43 92 102 115 122 121 147 172 192 186 166 175 185 171 214 205 193 193 191 194 195 191 196 208 197 106 121 304
355 4 9 18 16 13 11 12 15 17 15 14 19 23 25 28 30 34 54 64 75 92 96 51 112 158 191 203 255 204 204 208 216 231 223 206 189 195 199 198 201 198 203 191 197 147 229
270 327 347 358 8 15 12 11 13 16 17 16 15 20 25 26 32 45 63 83 78 34 9 22 314 184 198 226 226 202 234 268 231 233 232 244 218 194 199 205 208 205 201 207 195 196 165
252 282 316 338 346 356 7 6 8 10 13 17 20 22 24 25 27 30 37 26 7 7 7 21 23 316 239 190 212 223 244 231 226 226 231 238 246 216 205 214 213 215 217 214 213 212 203
251 257 281 311 328 339 346 352 353 0 8 11 16 22 18 18 22 25 21 20 13 360 354 351 360 335 285 267 266 226 242 244 233 212 211 212 222 187 184 237 235 229 228 227 229 243 233
247 259 266 283 297 313 324 334 340 343 349 355 8 16 16 15 14 16 17 17 9 9 3 345 334 330 308 278 259 278 272 272 238 221 218 212 227 230 224 241 215 224 241 239 235 239 245
249 254 263 270 282 293 304 314 320 327 332 340 352 357 3 8 10 10 8 3 4 0 353 344 336 325 315 299 303 278 274 267 268 257 243 235 253 250 256 261 259 256 254 248 242 246 247
250 255 260 267 274 280 287 295 304 311 315 320 327 327 335 348 9 17 12 360 349 342 340 341 333 322 305 297 289 290 291 284 268 257 250 252 262 271 277 275 273 272 267 263 260 258 258
253 255 258 264 268 273 280 285 291 295 298 301 304 306 306 313 320 333 353 359 346 333 329 327 324 321 312 298 288 284 283 272 261 263 260 255 255 266 264 265 272 280 271 258 262 264 269
253 255 258 261 265 269 271 276 280 284 288 289 289 289 293 295 297 310 320 341 347 333 315 313 314 314 310 307 300 293 286 279 271 263 255 251 255 251 270 275 270 257 254 259 262 266 269
253 255 255 259 261 265 269 271 274 276 279 286 288 289 288 287 291 292 294 310 327 322 312 304 305 304 302 299 297 292 290 286 272 256 250 248 245 243 251 225 273 268 261 264 258 260 266
257 258 259 258 261 263 267 271 271 272 275 276 282 285 285 286 291 292 287 293 302 315 316 307 303 300 295 291 288 269 250 272 260 255 255 245 239 232 233 235 238 259 260 267 254 251 286
257 258 260 262 261 264 264 267 271 274 272 273 275 277 278 278 280 284 286 282 287 293 301 308 298 295 295 289 275 268 264 249 248 242 252 235 232 229 233 236 255 253 260 263 240 234 246
259 259 260 262 264 263 265 265 267 270 272 271 271 275 277 277 276 280 280 278 275 273 287 295 291 289 285 277 268 269 257 252 251 249 254 253 247 225 223 228 264 246 251 239 248 247 260
259 259 260 260 260 261 262 262 263 266 268 270 268 269 272 276 276 273 275 273 268 269 279 278 282 275 268 265 264 265 256 256 256 252 259 252 245 248 230 244 254 240 239 249 266 274 275
Height
3141 3139 3136 3133 3130 3126 3123 3120 3117 3114 3110 3105 3101 3098 3093 3087 3082 3077 3072 3067 3066 3066 3066 3067 3068 3070 3072 3076 3080 3081 3083 3086 3089 3094 3098 3102 3107 3113 3118 3124 3130 3136 3142 3147 3152 3155 3158
3142 3139 3136 3133 3129 3126 3122 3119 3116 3113 3110 3106 3102 3098 3094 3088 3083 3078 3074 3070 3066 3065 3065 3066 3067 3069 3072 3076 3078 3081 3082 3085 3089 3093 3096 3101 3106 3112 3118 3122 3129 3134 3139 3144 3148 3152 3156
3142 3140 3137 3133 3129 3126 3121 3117 3115 3113 3109 3106 3103 3099 3095 3090 3085 3079 3074 3068 3066 3064 3064 3065 3067 3069 3072 3076 3077 3080 3082 3085 3088 3092 3096 3100 3105 3110 3114 3120 3125 3130 3137 3141 3145 3149 3152
3143 3141 3138 3134 3130 3126 3122 3117 3114 3112 3109 3106 3103 3099 3095 3092 3087 3081 3076 3071 3067 3064 3064 3063 3066 3069 3072 3074 3077 3080 3082 3085 3089 3092 3096 3100 3104 3109 3113 3117 3123 3129 3134 3138 3141 3145 3149
3143 3141 3138 3134 3131 3127 3122 3118 3114 3111 3108 3106 3102 3099 3095 3092 3088 3084 3079 3074 3070 3066 3063 3063 3067 3070 3073 3075 3078 3080 3082 3085 3089 3092 3095 3100 3104 3108 3112 3116 3120 3124 3127 3132 3138 3142 3145
3143 3141 3138 3135 3131 3127 3123 3118 3114 3111 3107 3104 3102 3100 3096 3092 3089 3086 3082 3078 3073 3070 3068 3067 3070 3075 3075 3077 3078 3080 3082 3085 3089 3092 3096 3100 3105 3107 3110 3113 3113 3118 3124 3130 3135 3140 3142
3142 3140 3138 3135 3131 3127 3123 3119 3114 3110 3107 3104 3101 3100 3097 3094 3091 3088 3085 3083 3081 3077 3074 3072 3074 3074 3076 3078 3079 3080 3083 3085 3088 3092 3096 3100 3105 3106 3110 3114 3118 3121 3126 3130 3133 3137 3140
3144 3141 3138 3136 3132 3128 3123 3119 3114 3111 3108 3105 3102 3099 3098 3095 3092 3090 3088 3086 3084 3083 3079 3077 3077 3078 3079 3080 3081 3083 3085 3087 3089 3093 3097 3102 3106 3108 3110 3114 3118 3120 3124 3129 3132 3134 3138
3145 3142 3138 3135 3132 3129 3124 3120 3116 3112 3108 3105 3102 3098 3096 3095 3093 3091 3089 3088 3086 3085 3083 3082 3082 3082 3083 3083 3084 3085 3087 3089 3092 3095 3099 3102 3107 3108 3110 3114 3117 3120 3123 3127 3130 3132 3135
3145 3143 3140 3136 3132 3129 3125 3121 3117 3113 3109 3105 3102 3099 3096 3094 3094 3091 3090 3087 3086 3086 3087 3089 3088 3088 3086 3086 3088 3089 3090 3093 3094 3098 3101 3105 3107 3108 3110 3114 3117 3119 3122 3125 3129 3132 3133
3144 3142 3140 3137 3134 3130 3127 3123 3119 3114 3111 3106 3103 3100 3097 3093 3093 3091 3090 3088 3087 3087 3090 3092 3090 3090 3088 3090 3091 3091 3092 3095 3097 3100 3103 3106 3107 3108 3111 3114 3116 3119 3120 3124 3127 3130 3132
3143 3142 3140 3138 3134 3130 3127 3124 3120 3116 3112 3107 3104 3101 3098 3096 3093 3092 3090 3088 3088 3090 3091 3093 3092 3092 3092 3091 3091 3093 3095 3097 3099 3101 3102 3105 3107 3109 3111 3113 3116 3118 3120 3123 3126 3129 3131
3143 3141 3140 3138 3135 3132 3129 3125 3121 3117 3114 3110 3105 3101 3099 3097 3096 3093 3091 3090 3090 3089 3095 3095 3093 3093 3093 3094 3095 3096 3097 3098 3100 3102 3103 3105 3106 3108 3110 3112 3115 3116 3118 3123 3129 3130 3128
3144 3141 3140 3139 3137 3133 3131 3128 3123 3119 3115 3112 3108 3104 3100 3098 3096 3094 3092 3093 3091 3093 3092 3094 3095 3095 3096 3096 3097 3097 3097 3099 3100 3101 3103 3104 3106 3106 3108 3111 3113 3115 3116 3117 3125 3127 3123
3142 3142 3140 3138 3136 3134 3131 3128 3125 3122 3117 3113 3110 3107 3102 3100 3097 3096 3095 3093 3094 3095 3095 3095 3096 3097 3096 3097 3098 3098 3098 3099 3100 3102 3103 3102 3102 3104 3106 3109 3112 3113 3114 3117 3117 3121 3121
3141 3141 3141 3138 3136 3134 3132 3129 3126 3123 3120 3116 3113 3110 3105 3101 3099 3098 3097 3095 3096 3097 3097 3097 3095 3096 3096 3097 3098 3098 3098 3099 3100 3100 3101 3101 3101 3102 3104 3107 3109 3109 3113 3115 3116 3120 3121
3139 3138 3138 3138 3136 3134 3133 3131 3128 3124 3121 3118 3115 3112 3109 3106 3103 3101 3100 3099 3098 3098 3098 3097 3096 3095 3096 3097 3097 3097 3099 3099 3098 3099 3100 3100 3101 3103 3104 3104 3105 3108 3108 3111 3112 3113 3112
3137 3136 3135 3135 3135 3134 3132 3130 3128 3126 3123 3120 3116 3113 3111 3108 3107 3104 3102 3102 3101 3099 3097 3097 3097 3096 3096 3095 3096 3097 3097 3097 3097 3098 3099 3100 3100 3099 3101 3101 3103 3104 3105 3106 3107 3109 3108
3134 3133 3133 3132 3132 3131 3131 3129 3128 3125 3122 3120 3118 3115 3112 3110 3107 3105 3104 3103 3102 3101 3099 3098 3096 3096 3096 3096 3096 3094 3094 3095 3095 3096 3097 3098 3098 3099 3100 3102 3100 3099 3100 3102 3104 3105 3104
3129 3131 3130 3130 3129 3128 3128 3126 3125 3124 3122 3120 3117 3115 3113 3111 3108 3106 3103 3102 3102 3101 3100 3099 3098 3097 3096 3095 3095 3094 3094 3094 3094 3095 3096 3096 3096 3096 3096 3096 3096 3096 3096 3098 3101 3101 3097
3125 3125 3126 3125 3125 3125 3124 3123 3122 3121 3120 3119 3116 3115 3113 3111 3109 3107 3105 3103 3101 3100 3101 3099 3098 3097 3096 3095 3094 3093 3093 3092 3093 3093 3094 3095 3093 3093 3093 3093 3093 3093 3093 3094 3093 3093 3093
3119 3120 3121 3122 3122 3122 3122 3120 3119 3118 3117 3116 3115 3113 3112 3110 3108 3107 3105 3104 3102 3100 3098 3097 3097 3097 3095 3095 3094 3092 3092 3092 3091 3091 3091 3092 3091 3090 3090 3090 3089 3088 3088 3088 3088 3088 3087
3113 3114 3114 3116 3116 3116 3116 3115 3115 3114 3113 3112 3111 3109 3108 3107 3106 3105 3103 3102 3101 3099 3098 3095 3094 3094 3094 3093 3092 3091 3090 3089 3089 3089 3088 3088 3088 3087 3085 3084 3084 3082 3080 3079 3079 3079 3082
3105 3106 3108 3108 3110 3111 3110 3110 3110 3109 3109 3108 3107 3106 3104 3104 3103 3103 3101 3100 3098 3096 3096 3094 3093 3091 3091 3089 3088 3088 3087 3086 3086 3085 3084 3084 3085 3085 3083 3083 3083 3074 3074 3075 3075 3075 3076
3097 3098 3099 3100 3102 3103 3104 3103 3103 3103 3102 3103 3102 3101 3099 3098 3099 3099 3098 3097 3095 3094 3092 3091 3091 3089 3086 3085 3084 3081 3080 3079 3077 3077 3078 3079 3081 3082 3082 3079 3074 3072 3071 3072 3072 3072 3072
3087 3089 3091 3092 3093 3094 3096 3097 3096 3095 3095 3094 3096 3095 3094 3093 3094 3094 3093 3093 3091 3089 3089 3088 3087 3085 3084 3082 3081 3078 3077 3075 3073 3071 3071 3072 3075 3079 3077 3077 3072 3066 3066 3065 3066 3068 3067
3076 3079 3081 3083 3084 3085 3086 3087 3089 3089 3088 3087 3088 3088 3087 3086 3087 3087 3087 3086 3085 3084 3082 3082 3082 3081 3079 3077 3076 3074 3072 3072 3070 3067 3067 3067 3068 3068 3069 3069 3064 3063 3063 3063 3067 3068 3064
3065 3066 3069 3071 3074 3074 3077 3076 3078 3079 3080 3080 3079 3079 3080 3078 3079 3079 3079 3080 3078 3077 3076 3075 3075 3074 3073 3073 3071 3070 3067 3066 3065 3063 3064 3065 3065 3064 3065 3066 3061 3058 3059 3062 3061 3060 3061
3052 3054 3056 3058 3061 3063 3064 3065 3066 3067 3069 3070 3071 3070 3069 3068 3070 3070 3069 3070 3070 3070 3069 3068 3069 3068 3067 3066 3065 3064 3062 3060 3060 3060 3060 3062 3062 3061 3062 3059 3056 3056 3056 3057 3057 3057 3056